Location: Ottawa
(45.4170°N, 75.7000°W)
Time: 05:57:27
(UTC-05:00)

Iridium 91 - Visible Passes

Search period start: 01 March 2015 00:00
Search period end: 11 March 2015 01:00
Orbit: 776 x 779 km, 86.4° (Epoch: 28 February)

Date Brightness Start Highest point End Pass type
(mag) Time Alt. Az. Time Alt. Az. Time Alt. Az.
01 Mar 6.5 18:32:30 10° NNE 18:36:42 25° ENE 18:40:59 10° SE visible
01 Mar 6.6 20:12:44 10° NNW 20:17:42 44° W 20:22:35 10° SSW visible
02 Mar 5.6 19:39:01 10° N 19:44:15 78° W 19:49:27 10° S visible
03 Mar 5.5 19:05:31 10° N 19:10:41 60° E 19:15:51 10° SSE visible
03 Mar 8.1 20:47:26 10° NW 20:50:59 18° W 20:54:21 10° WSW visible
04 Mar 6.1 18:32:16 10° NNE 18:36:59 34° ENE 18:41:44 10° SE visible
04 Mar 7.3 20:13:07 10° NNW 20:17:42 31° W 20:22:12 10° SW visible
05 Mar 6.2 19:39:13 10° NNW 19:44:19 55° W 19:49:23 10° SSW visible
06 Mar 5.5 19:05:35 10° N 19:10:51 84° E 19:16:04 10° S visible
06 Mar 8.6 20:48:32 10° NW 20:50:54 13° WNW 20:53:01 10° W visible
07 Mar 5.8 18:32:11 10° N 18:37:13 47° E 18:42:16 10° SSE visible
07 Mar 7.9 20:13:37 10° NNW 20:17:41 23° W 20:21:35 10° SW visible
08 Mar 8.9 06:54:24 10° E 06:56:13 12° ENE 06:58:20 10° NE visible
08 Mar 7.0 20:39:30 10° NNW 20:44:21 39° W 20:49:08 10° SSW visible
09 Mar 5.9 20:05:44 10° N 20:10:57 69° W 20:16:07 10° S visible
10 Mar 5.5 19:32:11 10° N 19:37:24 67° E 19:42:36 10° SSE visible
10 Mar 8.5 21:14:23 10° NW 21:17:37 16° WNW 21:20:38 10° WSW visible
